Location: Newark
(52.3500°N, 175.9667°E)
Time: 10:37:35
(UTC+00:00)

Transit 4A - Pass Details

Date: 25 April 2021
Orbit: 870 x 974 km, 66.8° (Epoch: 07 May)

Event Time Altitude Azimuth Distance (km) Brightness Sun altitude
Rises 13:46:20 0° 276° (W) 3,591 10.8 -21.3°
Reaches altitude 10° 13:49:26 10° 290° (WNW) 2,630 10.2 -21.1°
Maximum altitude 13:54:16 24° 343° (NNW) 1,814 9.9 -20.8°
Drops below altitude 10° 13:59:00 10° 36° (NE) 2,577 11.4 -20.5°
Sets 14:02:01 0° 50° (NE) 3,503 12.1 -20.3°
